Погода в Бад-Райхенхалле

Германия     47°43′15″N   12°52′26″E
В апреле 2022 года жителям России запретили посещать сайт meteo.paraplan.net по решению Генеральной прокуратуры. Аудитория сайта уменьшилась в 10 раз. Владельцы сайта не видят смысла в поддержке погодного сервера в таких условиях. Сайт будет закрыт в октябре.
темп.,
°C
ветер,
м/с
пор.,
м/с
влажн.,
%
обл.,
%
осадки,
мм/ч
давл.,
гПа
погр.,
м
29 сентября, чт
чт2923:00+5сз1299100 4.5 1004169
02:00+5юз1198100 7.6 100475
05:00+5ююз1197100 3.5 100351
08:00+5ю119699 3.8 100351
11:00+9всв1183100 0.0 1002689
14:00+8с2289100 0.2 1003426
17:00+7св1195100 0.4 100373
20:00+7ссв0099100 4.0 100533
30 сентября, пт
пт3023:00+6ссз1199100 2.4 100782
02:00+6с1199100 3.6 100864
05:00+6св1199100 0.4 100975
08:00+6юв0199100 0.6 101170
11:00+7св1196100 0.0 1012166
14:00+8всв1191100 0.1 1013333
17:00+10ссв1180100 0.1 1012512
20:00+8ююв1192100 0.1 101412
1 октября, сб
сб123:00+8ююз1190100 0.0 101521
02:00+7ю219184 0.0 101626
05:00+6ююз21945 0.0 101617
08:00+6ююз229060 0.0 101636
11:00+12ссв1168100 0.0 1014572
14:00+12с2269100 0.0 1014819
17:00+9ссз2488100 0.1 1017333
20:00+7ююз3596100 2.8 1020161
2 октября, вс
вс223:00+8ююз2394100 0.3 102173
02:00+8юз3596100 1.8 1022197
05:00+8юз2497100 1.3 1024197
08:00+8юз249799 2.8 1025133
11:00+8ююз2495100 0.4 1026141
14:00+10ююз3587100 1.1 1025463
17:00+8ююз2496100 1.6 1024109
20:00+9ююз349598 3.3 102482
3 октября, пн
пн323:00+9ююз3393100 0.5 102251
02:00+10юз3497100 2.6 102187
05:00+10ююз359794 3.9 1021144
08:00+9юз3695100 4.6 1021149
11:00+10юз2597100 2.9 1022225
14:00+10зюз2398100 7.6 1023169
17:00+11зюз2496100 1.6 1024213
20:00+9зюз1297100 2.0 102538